Location: Branche des Alpilles
(43.6087°N, 4.6976°E)
Time: 04:27:57
(UTC+00:00)

BREEZE-M DEB (TANK) - Pass Details

Date: 30 November 2020
Orbit: 305 x 17161 km, 49.4° (Epoch: 24 January)

Event Time Altitude Azimuth Distance (km) Brightness Sun altitude
Rises 16:32:11 0° 261° (W) 2,686 8.1 -5.0°
Reaches altitude 10° 16:34:44 10° 271° (W) 1,358 6.0 -5.5°
Maximum altitude 16:37:00 35° 342° (NNW) 521 2.7 -5.8°
Drops below altitude 10° 16:39:08 10° 54° (NE) 1,270 4.0 -6.2°
Enters shadow 16:39:28 - 56° (ENE) 1,442 4.3 -6.2°
